DW4509 Carlton UK current weather conditions

sailwx.info

Wind from 275

Air temperature 16.7° C
Dewpoint 10.5° C

Last reported at 2019-Sep-16 15:03 UTC.
Time now 2019-Sep-16 16:12 UTC

Location: N 53°21' W 001°07'.
View on Google Maps.

See reports from other nearby stations

  
Tides and Currents Weather Stations Pressure Air Temp Water Temp Dewpoint Dewpoint Depression Visibility Wind Speed Wind Dir Waves Ship Positions
date/time (UTC)wind fromknots sea level pressurealtimeterstation pressurevisibilityair tempwater tempwave heightnotes
2019-Sep-16 15:03 275 16.7
2019-Sep-16 14:53 046 16.7
2019-Sep-16 14:43 355 16.7
2019-Sep-16 14:33 355 1 gusting 1 16.7
2019-Sep-16 14:23 236 16.7
2019-Sep-16 14:13 236 16.7
2019-Sep-16 14:03 245 16.7
2019-Sep-16 13:53 245 16.7
2019-Sep-16 13:43 201 0 gusting 1 16.7
2019-Sep-16 13:33 071 0 gusting 3 16.7
2019-Sep-16 13:23 056 16.7
2019-Sep-16 13:13 053 1 gusting 3 16.1
2019-Sep-16 13:03 278 16.1
2019-Sep-16 12:53 254 0 gusting 4 15.6
2019-Sep-16 12:43 014 15.6
2019-Sep-16 12:33 012 0 gusting 3 15.0
2019-Sep-16 12:23 251 15.6
2019-Sep-16 12:13 010 15.6
2019-Sep-16 12:03 294 15.0
2019-Sep-16 11:53 251 14.4
2019-Sep-16 11:43 226 0 gusting 3 14.4
2019-Sep-16 11:33 270 14.4
2019-Sep-16 11:23 029 1 gusting 3 14.4
2019-Sep-16 11:13 035 0 gusting 4 13.9
2019-Sep-16 11:03 072 13.9
2019-Sep-16 10:53 030 1 gusting 2 13.9
2019-Sep-16 10:43 031 0 gusting 3 13.9
2019-Sep-16 10:33 092 1 gusting 4 13.3
2019-Sep-16 10:23 059 13.3
2019-Sep-16 10:13 110 0 gusting 4 13.3
2019-Sep-16 10:03 352 1 gusting 4 13.3
2019-Sep-16 09:53 009 0 gusting 6 13.3
2019-Sep-16 09:43 140 13.3
2019-Sep-16 09:33 092 0 gusting 4 13.3
2019-Sep-16 09:23 351 4 gusting 4 12.8
2019-Sep-16 09:13 047 0 gusting 4 12.8
2019-Sep-16 09:03 054 0 gusting 3 12.8
2019-Sep-16 08:53 115 12.8
2019-Sep-16 08:43 137 12.2
2019-Sep-16 08:33 164 0 gusting 2 12.2
2019-Sep-16 08:23 038 0 gusting 2 12.2
2019-Sep-16 08:13 304 12.2
2019-Sep-16 08:03 082 11.7
2019-Sep-16 07:53 025 11.7
2019-Sep-16 07:43 022 11.1
2019-Sep-16 07:33 032 11.1
2019-Sep-16 07:23 004 0 gusting 0 11.1
2019-Sep-16 07:13 046 11.1
2019-Sep-16 07:03 032 11.1
2019-Sep-16 06:53 356 11.1
2019-Sep-16 06:43 019 11.1
2019-Sep-16 06:33 019 11.1
2019-Sep-16 06:23 022 11.1
2019-Sep-16 06:13 022 10.6
2019-Sep-16 06:03 022 10.6
2019-Sep-16 05:53 022 10.6
2019-Sep-16 05:43 022 11.1
2019-Sep-16 05:33 022 11.1
2019-Sep-16 05:23 022 11.1
2019-Sep-16 05:13 022 11.1
2019-Sep-16 05:03 022 11.1
2019-Sep-16 04:53 022 11.1
2019-Sep-16 04:43 022 11.7
2019-Sep-16 04:33 022 11.7
2019-Sep-16 04:23 022 11.7
2019-Sep-16 04:13 022 11.7
2019-Sep-16 04:03 022 11.7
2019-Sep-16 03:53 349 11.7
2019-Sep-16 03:43 349 11.7
2019-Sep-16 03:33 007 11.7
2019-Sep-16 03:23 325 11.7
2019-Sep-16 03:13 321 11.7
2019-Sep-16 03:03 347 11.7
2019-Sep-16 02:53 321 11.7
2019-Sep-16 02:43 009 11.7
2019-Sep-16 02:33 017 11.7
2019-Sep-16 02:23 017 11.7
2019-Sep-16 02:13 017 11.7
2019-Sep-16 02:03 017 11.7
2019-Sep-16 01:53 017 11.7
2019-Sep-16 01:43 017 11.7
2019-Sep-16 01:33 017 11.7
2019-Sep-16 01:23 010 11.7
2019-Sep-16 01:13 001 11.7
2019-Sep-16 01:03 358 11.7
2019-Sep-16 00:53 358 11.7
2019-Sep-16 00:43 357 11.7
2019-Sep-16 00:33 357 11.7
2019-Sep-16 00:23 357 11.7
2019-Sep-16 00:13 357 11.7
2019-Sep-16 00:03 359 11.7
2019-Sep-15 23:53 359 11.7
2019-Sep-15 23:43 359 11.7
2019-Sep-15 23:33 359 11.7
2019-Sep-15 23:23 359 11.7
2019-Sep-15 23:13 359 11.7
2019-Sep-15 23:03 359 11.7
2019-Sep-15 22:53 359 11.7
2019-Sep-15 22:43 359 11.7
2019-Sep-15 22:33 359 11.7
2019-Sep-15 22:23 359 11.7
2019-Sep-15 22:13 359 11.7
2019-Sep-15 22:03 359 11.7
2019-Sep-15 21:53 359 11.7
2019-Sep-15 21:43 357 11.7
2019-Sep-15 21:33 357 11.7
2019-Sep-15 21:23 011 0 gusting 2 11.7
2019-Sep-15 21:13 342 11.7
2019-Sep-15 21:03 034 0 gusting 3 11.7
2019-Sep-15 20:53 335 0 gusting 4 11.7
2019-Sep-15 20:43 091 1 gusting 3 12.2
2019-Sep-15 20:33 011 12.2
2019-Sep-15 20:23 012 12.2
2019-Sep-15 20:13 012 12.8
2019-Sep-15 20:03 004 12.8
2019-Sep-15 19:53 023 0 gusting 2 12.8
2019-Sep-15 19:43 359 0 gusting 1 12.8
2019-Sep-15 19:33 029 0 gusting 1 13.3
2019-Sep-15 19:23 359 13.9
2019-Sep-15 19:13 315 13.9
2019-Sep-15 19:03 315 13.9
2019-Sep-15 18:53 308 14.4
2019-Sep-15 18:43 308 14.4
2019-Sep-15 18:33 326 14.4
2019-Sep-15 18:23 326 14.4
2019-Sep-15 18:13 290 14.4
2019-Sep-15 18:03 290 14.4
2019-Sep-15 17:53 290 15.0
2019-Sep-15 17:43 290 15.0
2019-Sep-15 17:33 290 15.0
2019-Sep-15 17:23 250 15.0
2019-Sep-15 17:13 269 15.6
2019-Sep-15 17:03 342 15.6
2019-Sep-15 16:53 056 15.6
2019-Sep-15 16:43 277 15.6
2019-Sep-15 16:33 055 16.1
2019-Sep-15 16:23 310 16.1
2019-Sep-15 16:13 053 2 gusting 4 16.1
2019-Sep-15 16:03 311 2 gusting 2 16.7
2019-Sep-15 15:53 059 0 gusting 2 16.7
2019-Sep-15 15:43 269 16.7
2019-Sep-15 15:33 241 16.7
2019-Sep-15 15:23 079 16.7
2019-Sep-15 15:13 247 0 gusting 5 16.7
2019-Sep-15 15:03 257 1 gusting 5 16.7
2019-Sep-15 14:53 285 2 gusting 4 16.7
2019-Sep-15 14:43 280 17.2
2019-Sep-15 14:33 069 0 gusting 3 17.2
2019-Sep-15 14:23 059 0 gusting 4 17.2
2019-Sep-15 14:13 293 17.2
2019-Sep-15 14:03 271 0 gusting 3 17.8
2019-Sep-15 13:53 023 17.8
2019-Sep-15 13:43 251 17.8
2019-Sep-15 13:33 286 0 gusting 4 17.8
2019-Sep-15 13:23 250 1 gusting 5 18.3
2019-Sep-15 13:13 279 1 gusting 4 18.3
2019-Sep-15 13:03 072 0 gusting 4 18.9
2019-Sep-15 12:53 335 1 gusting 3 18.9
2019-Sep-15 12:43 293 0 gusting 5 18.9
2019-Sep-15 12:33 256 1 gusting 6 18.9
2019-Sep-15 12:23 285 19.4
2019-Sep-15 12:13 261 19.4
2019-Sep-15 12:03 356 2 gusting 5 19.4
2019-Sep-15 11:53 283 0 gusting 7 18.9
2019-Sep-15 11:43 309 0 gusting 4 18.9
2019-Sep-15 11:33 018 1 gusting 3 18.9
2019-Sep-15 11:23 049 0 gusting 4 18.9
2019-Sep-15 11:13 243 1 gusting 5 18.9
2019-Sep-15 11:03 276 0 gusting 6 18.9
2019-Sep-15 10:53 013 1 gusting 6 19.4
2019-Sep-15 10:43 278 5 gusting 8 18.9
2019-Sep-15 10:33 263 0 gusting 5 18.3
2019-Sep-15 10:23 264 1 gusting 6 18.3
2019-Sep-15 10:13 231 17.8
2019-Sep-15 10:03 033 18.3
2019-Sep-15 09:53 284 1 gusting 5 18.3
2019-Sep-15 09:43 236 0 gusting 5 18.3
2019-Sep-15 09:33 036 1 gusting 8 18.3
2019-Sep-15 09:23 219 1 gusting 7 18.3
2019-Sep-15 09:13 282 6 gusting 9 18.3
2019-Sep-15 09:03 275 4 gusting 7 18.3
2019-Sep-15 08:53 260 0 gusting 3 17.8
2019-Sep-15 08:43 281 17.8
2019-Sep-15 08:33 271 0 gusting 4 17.8
2019-Sep-15 08:23 228 17.8
2019-Sep-15 08:13 279 1 gusting 4 17.2
2019-Sep-15 08:03 266 0 gusting 2 16.7
2019-Sep-15 07:53 233 16.7
2019-Sep-15 07:43 281 0 gusting 2 15.6
2019-Sep-15 07:33 334 15.0
2019-Sep-15 07:23 006 15.0
2019-Sep-15 07:13 006 15.0
2019-Sep-15 07:03 319 14.4
2019-Sep-15 06:53 319 14.4
2019-Sep-15 06:43 040 13.9
2019-Sep-15 06:33 048 13.9
2019-Sep-15 06:23 348 13.9
2019-Sep-15 06:13 349 13.9
2019-Sep-15 06:03 006 13.3
2019-Sep-15 05:53 006 13.3
2019-Sep-15 05:43 006 13.3
2019-Sep-15 05:33 058 13.3
2019-Sep-15 05:23 015 13.3
2019-Sep-15 05:13 015 13.3
2019-Sep-15 05:03 328 13.3
2019-Sep-15 04:53 328 13.3
2019-Sep-15 04:43 305 13.3
2019-Sep-15 04:33 308 13.3
2019-Sep-15 04:23 308 13.3
2019-Sep-15 04:13 078 13.9
2019-Sep-15 04:03 345 13.9
2019-Sep-15 03:53 342 13.9
2019-Sep-15 03:43 060 13.9
2019-Sep-15 03:33 110 14.4
2019-Sep-15 03:23 255 0 gusting 3 14.4
2019-Sep-15 03:13 108 13.9
2019-Sep-15 03:03 253 0 gusting 2 13.9
2019-Sep-15 02:53 100 13.9
2019-Sep-15 02:43 324 13.9
2019-Sep-15 02:33 032 13.9
2019-Sep-15 02:23 055 13.9
2019-Sep-15 02:13 220 2 gusting 2 13.9
2019-Sep-15 02:03 066 13.9
2019-Sep-15 01:53 011 0 gusting 2 13.9
2019-Sep-15 01:43 110 13.9
2019-Sep-15 01:33 007 13.9
2019-Sep-15 01:23 295 0 gusting 3 13.9
2019-Sep-15 01:13 325 14.4
2019-Sep-15 01:03 103 14.4
2019-Sep-15 00:53 347 0 gusting 5 14.4
2019-Sep-15 00:43 090 2 gusting 5 14.4
2019-Sep-15 00:33 271 0 gusting 2 13.9
2019-Sep-15 00:23 046 13.9
2019-Sep-15 00:13 286 14.4
2019-Sep-15 00:03 244 14.4
2019-Sep-14 23:53 064 14.4
2019-Sep-14 23:43 282 14.4
2019-Sep-14 23:33 297 14.4
2019-Sep-14 23:23 107 15.0
2019-Sep-14 23:13 242 15.0
2019-Sep-14 23:03 229 0 gusting 2 15.6
2019-Sep-14 22:53 101 0 gusting 3 15.6
2019-Sep-14 22:43 278 4 gusting 5 15.0
2019-Sep-14 22:33 300 0 gusting 2 15.0
2019-Sep-14 22:23 131 0 gusting 1 15.0
2019-Sep-14 22:13 029 0 gusting 2 14.4
2019-Sep-14 22:03 050 0 gusting 2 13.9
2019-Sep-14 21:53 309 13.3
2019-Sep-14 21:43 049 13.9
2019-Sep-14 21:33 049 13.9
2019-Sep-14 21:23 049 13.9
2019-Sep-14 21:13 012 13.9
2019-Sep-14 21:03 018 13.9
2019-Sep-14 20:53 053 13.9
2019-Sep-14 20:43 301 14.4
2019-Sep-14 20:33 046 14.4
2019-Sep-14 20:23 358 14.4
2019-Sep-14 20:13 028 0 gusting 0 14.4
2019-Sep-14 20:03 009 13.9
2019-Sep-14 19:53 300 0 gusting 0 14.4
2019-Sep-14 19:43 018 14.4
2019-Sep-14 19:33 024 14.4
2019-Sep-14 19:23 030 14.4
2019-Sep-14 19:13 335 14.4
2019-Sep-14 19:03 335 15.0
2019-Sep-14 18:53 335 15.6
2019-Sep-14 18:43 029 15.6
2019-Sep-14 18:33 030 16.1
2019-Sep-14 18:23 304 16.7
2019-Sep-14 18:13 051 16.7
2019-Sep-14 18:03 290 16.7
2019-Sep-14 17:53 321 17.2
2019-Sep-14 17:43 327 17.8
2019-Sep-14 17:33 328 18.3
2019-Sep-14 17:23 310 0 gusting 6 18.3
2019-Sep-14 17:13 269 1 gusting 3 18.9
2019-Sep-14 17:03 035 0 gusting 3 18.9
2019-Sep-14 16:53 275 0 gusting 3 19.4
2019-Sep-14 16:43 026 0 gusting 5 19.4
2019-Sep-14 16:33 241 0 gusting 3 19.4
2019-Sep-14 16:23 030 19.4
2019-Sep-14 16:13 295 19.4
2019-Sep-14 16:03 238 19.4